<?xml version="1.0" encoding="UTF-8" standalone="no" ?>
<gpx xmlns="http://www.topografix.com/GPX/1/1" xmlns:xsi="http://www.w3.org/2001/XMLSchema-instance" xsi:schemaLocation="http://www.topografix.com/GPX/1/1 http://www.topografix.com/GPX/1/1/gpx.xsd" version="1.1" creator="VisuGPX - https://www.visugpx.com">
  <metadata>
    <name>arfeuille la pisserote 28 kms</name>
    <desc><![CDATA[boucle au depart d arfeuille avec quelques grimpettes qui font mal au cuissesl]]></desc>
  </metadata>
  <trk>
    <name><![CDATA[track]]></name>
    <trkseg>
      <trkpt lat="46.15804" lon="3.72942">
        <ele>418</ele>
        <time>2008-08-01T17:25:19Z</time>
      </trkpt>
      <trkpt lat="46.15751" lon="3.73037">
        <ele>422</ele>
        <time>2008-08-01T17:25:19Z</time>
      </trkpt>
      <trkpt lat="46.15634" lon="3.72804">
        <ele>420</ele>
        <time>2008-08-01T17:25:19Z</time>
      </trkpt>
      <trkpt lat="46.15553" lon="3.72772">
        <ele>427</ele>
        <time>2008-08-01T17:25:19Z</time>
      </trkpt>
      <trkpt lat="46.15502" lon="3.72772">
        <ele>431</ele>
        <time>2008-08-01T17:25:19Z</time>
      </trkpt>
      <trkpt lat="46.15482" lon="3.72779">
        <ele>432</ele>
        <time>2008-08-01T17:25:19Z</time>
      </trkpt>
      <trkpt lat="46.15454" lon="3.728">
        <ele>437</ele>
        <time>2008-08-01T17:25:19Z</time>
      </trkpt>
      <trkpt lat="46.15421" lon="3.72839">
        <ele>439</ele>
        <time>2008-08-01T17:25:19Z</time>
      </trkpt>
      <trkpt lat="46.15355" lon="3.72868">
        <ele>440</ele>
        <time>2008-08-01T17:25:19Z</time>
      </trkpt>
      <trkpt lat="46.15286" lon="3.72865">
        <ele>439</ele>
        <time>2008-08-01T17:25:19Z</time>
      </trkpt>
      <trkpt lat="46.15234" lon="3.72849">
        <ele>443</ele>
        <time>2008-08-01T17:25:19Z</time>
      </trkpt>
      <trkpt lat="46.15199" lon="3.7285">
        <ele>444</ele>
        <time>2008-08-01T17:25:19Z</time>
      </trkpt>
      <trkpt lat="46.15155" lon="3.72863">
        <ele>447</ele>
        <time>2008-08-01T17:25:19Z</time>
      </trkpt>
      <trkpt lat="46.15136" lon="3.72852">
        <ele>449</ele>
        <time>2008-08-01T17:25:19Z</time>
      </trkpt>
      <trkpt lat="46.1501" lon="3.7272">
        <ele>457</ele>
        <time>2008-08-01T17:25:19Z</time>
      </trkpt>
      <trkpt lat="46.14977" lon="3.72699">
        <ele>458</ele>
        <time>2008-08-01T17:25:19Z</time>
      </trkpt>
      <trkpt lat="46.1492" lon="3.72679">
        <ele>457</ele>
        <time>2008-08-01T17:25:19Z</time>
      </trkpt>
      <trkpt lat="46.14833" lon="3.72684">
        <ele>460</ele>
        <time>2008-08-01T17:25:19Z</time>
      </trkpt>
      <trkpt lat="46.14802" lon="3.72695">
        <ele>461</ele>
        <time>2008-08-01T17:25:19Z</time>
      </trkpt>
      <trkpt lat="46.14784" lon="3.7271">
        <ele>461</ele>
        <time>2008-08-01T17:25:19Z</time>
      </trkpt>
      <trkpt lat="46.1476" lon="3.72763">
        <ele>462</ele>
        <time>2008-08-01T17:25:19Z</time>
      </trkpt>
      <trkpt lat="46.14738" lon="3.72743">
        <ele>463</ele>
        <time>2008-08-01T17:25:19Z</time>
      </trkpt>
      <trkpt lat="46.14736" lon="3.7271">
        <ele>463</ele>
        <time>2008-08-01T17:25:19Z</time>
      </trkpt>
      <trkpt lat="46.14769" lon="3.72645">
        <ele>466</ele>
        <time>2008-08-01T17:25:19Z</time>
      </trkpt>
      <trkpt lat="46.14764" lon="3.726">
        <ele>468</ele>
        <time>2008-08-01T17:25:19Z</time>
      </trkpt>
      <trkpt lat="46.14742" lon="3.72576">
        <ele>468</ele>
        <time>2008-08-01T17:25:19Z</time>
      </trkpt>
      <trkpt lat="46.14694" lon="3.72573">
        <ele>471</ele>
        <time>2008-08-01T17:25:19Z</time>
      </trkpt>
      <trkpt lat="46.14648" lon="3.72591">
        <ele>479</ele>
        <time>2008-08-01T17:25:19Z</time>
      </trkpt>
      <trkpt lat="46.14609" lon="3.72623">
        <ele>485</ele>
        <time>2008-08-01T17:25:19Z</time>
      </trkpt>
      <trkpt lat="46.1463" lon="3.72711">
        <ele>487</ele>
        <time>2008-08-01T17:25:19Z</time>
      </trkpt>
      <trkpt lat="46.146" lon="3.72824">
        <ele>499</ele>
        <time>2008-08-01T17:25:19Z</time>
      </trkpt>
      <trkpt lat="46.14582" lon="3.72862">
        <ele>505</ele>
        <time>2008-08-01T17:25:19Z</time>
      </trkpt>
      <trkpt lat="46.14532" lon="3.7287">
        <ele>513</ele>
        <time>2008-08-01T17:25:19Z</time>
      </trkpt>
      <trkpt lat="46.14388" lon="3.72988">
        <ele>540</ele>
        <time>2008-08-01T17:25:19Z</time>
      </trkpt>
      <trkpt lat="46.14327" lon="3.73066">
        <ele>552</ele>
        <time>2008-08-01T17:25:19Z</time>
      </trkpt>
      <trkpt lat="46.14299" lon="3.73092">
        <ele>555</ele>
        <time>2008-08-01T17:25:19Z</time>
      </trkpt>
      <trkpt lat="46.14282" lon="3.73165">
        <ele>551</ele>
        <time>2008-08-01T17:25:19Z</time>
      </trkpt>
      <trkpt lat="46.14274" lon="3.73173">
        <ele>552</ele>
        <time>2008-08-01T17:25:19Z</time>
      </trkpt>
      <trkpt lat="46.1428" lon="3.73173">
        <ele>552</ele>
        <time>2008-08-01T17:25:19Z</time>
      </trkpt>
      <trkpt lat="46.14262" lon="3.73156">
        <ele>551</ele>
        <time>2008-08-01T17:25:19Z</time>
      </trkpt>
      <trkpt lat="46.14209" lon="3.73163">
        <ele>549</ele>
        <time>2008-08-01T17:25:19Z</time>
      </trkpt>
      <trkpt lat="46.14198" lon="3.73159">
        <ele>549</ele>
        <time>2008-08-01T17:25:19Z</time>
      </trkpt>
      <trkpt lat="46.14179" lon="3.73099">
        <ele>543</ele>
        <time>2008-08-01T17:25:19Z</time>
      </trkpt>
      <trkpt lat="46.14124" lon="3.72987">
        <ele>535</ele>
        <time>2008-08-01T17:25:19Z</time>
      </trkpt>
      <trkpt lat="46.14094" lon="3.72962">
        <ele>529</ele>
        <time>2008-08-01T17:25:19Z</time>
      </trkpt>
      <trkpt lat="46.14069" lon="3.72948">
        <ele>524</ele>
        <time>2008-08-01T17:25:19Z</time>
      </trkpt>
      <trkpt lat="46.14019" lon="3.72944">
        <ele>516</ele>
        <time>2008-08-01T17:25:19Z</time>
      </trkpt>
      <trkpt lat="46.13956" lon="3.72951">
        <ele>509</ele>
        <time>2008-08-01T17:25:19Z</time>
      </trkpt>
      <trkpt lat="46.13914" lon="3.72963">
        <ele>507</ele>
        <time>2008-08-01T17:25:19Z</time>
      </trkpt>
      <trkpt lat="46.13844" lon="3.72966">
        <ele>496</ele>
        <time>2008-08-01T17:25:19Z</time>
      </trkpt>
      <trkpt lat="46.13836" lon="3.72953">
        <ele>492</ele>
        <time>2008-08-01T17:25:19Z</time>
      </trkpt>
      <trkpt lat="46.13893" lon="3.72865">
        <ele>476</ele>
        <time>2008-08-01T17:25:19Z</time>
      </trkpt>
      <trkpt lat="46.13897" lon="3.72851">
        <ele>473</ele>
        <time>2008-08-01T17:25:19Z</time>
      </trkpt>
      <trkpt lat="46.13893" lon="3.72828">
        <ele>480</ele>
        <time>2008-08-01T17:25:19Z</time>
      </trkpt>
      <trkpt lat="46.13853" lon="3.72815">
        <ele>486</ele>
        <time>2008-08-01T17:25:19Z</time>
      </trkpt>
      <trkpt lat="46.13848" lon="3.728">
        <ele>488</ele>
        <time>2008-08-01T17:25:19Z</time>
      </trkpt>
      <trkpt lat="46.13852" lon="3.72783">
        <ele>490</ele>
        <time>2008-08-01T17:25:19Z</time>
      </trkpt>
      <trkpt lat="46.13881" lon="3.72745">
        <ele>499</ele>
        <time>2008-08-01T17:25:19Z</time>
      </trkpt>
      <trkpt lat="46.13888" lon="3.72714">
        <ele>504</ele>
        <time>2008-08-01T17:25:19Z</time>
      </trkpt>
      <trkpt lat="46.13926" lon="3.72626">
        <ele>515</ele>
        <time>2008-08-01T17:25:19Z</time>
      </trkpt>
      <trkpt lat="46.14018" lon="3.72502">
        <ele>528</ele>
        <time>2008-08-01T17:25:19Z</time>
      </trkpt>
      <trkpt lat="46.14034" lon="3.72402">
        <ele>532</ele>
        <time>2008-08-01T17:25:19Z</time>
      </trkpt>
      <trkpt lat="46.14015" lon="3.72329">
        <ele>534</ele>
        <time>2008-08-01T17:25:19Z</time>
      </trkpt>
      <trkpt lat="46.14009" lon="3.72317">
        <ele>537</ele>
        <time>2008-08-01T17:25:19Z</time>
      </trkpt>
      <trkpt lat="46.13998" lon="3.72315">
        <ele>538</ele>
        <time>2008-08-01T17:25:19Z</time>
      </trkpt>
      <trkpt lat="46.13929" lon="3.72336">
        <ele>544</ele>
        <time>2008-08-01T17:25:19Z</time>
      </trkpt>
      <trkpt lat="46.13866" lon="3.72345">
        <ele>546</ele>
        <time>2008-08-01T17:25:19Z</time>
      </trkpt>
      <trkpt lat="46.13829" lon="3.72395">
        <ele>547</ele>
        <time>2008-08-01T17:25:19Z</time>
      </trkpt>
      <trkpt lat="46.13795" lon="3.72421">
        <ele>547</ele>
        <time>2008-08-01T17:25:19Z</time>
      </trkpt>
      <trkpt lat="46.13769" lon="3.72483">
        <ele>553</ele>
        <time>2008-08-01T17:25:19Z</time>
      </trkpt>
      <trkpt lat="46.13742" lon="3.72523">
        <ele>552</ele>
        <time>2008-08-01T17:25:19Z</time>
      </trkpt>
      <trkpt lat="46.13672" lon="3.72567">
        <ele>550</ele>
        <time>2008-08-01T17:25:19Z</time>
      </trkpt>
      <trkpt lat="46.13549" lon="3.72558">
        <ele>559</ele>
        <time>2008-08-01T17:25:19Z</time>
      </trkpt>
      <trkpt lat="46.13527" lon="3.72546">
        <ele>564</ele>
        <time>2008-08-01T17:25:19Z</time>
      </trkpt>
      <trkpt lat="46.13474" lon="3.72488">
        <ele>568</ele>
        <time>2008-08-01T17:25:19Z</time>
      </trkpt>
      <trkpt lat="46.13442" lon="3.72477">
        <ele>570</ele>
        <time>2008-08-01T17:25:19Z</time>
      </trkpt>
      <trkpt lat="46.13406" lon="3.72483">
        <ele>573</ele>
        <time>2008-08-01T17:25:19Z</time>
      </trkpt>
      <trkpt lat="46.13351" lon="3.72515">
        <ele>578</ele>
        <time>2008-08-01T17:25:19Z</time>
      </trkpt>
      <trkpt lat="46.13309" lon="3.72556">
        <ele>575</ele>
        <time>2008-08-01T17:25:19Z</time>
      </trkpt>
      <trkpt lat="46.13295" lon="3.72552">
        <ele>574</ele>
        <time>2008-08-01T17:25:19Z</time>
      </trkpt>
      <trkpt lat="46.13238" lon="3.72564">
        <ele>568</ele>
        <time>2008-08-01T17:25:19Z</time>
      </trkpt>
      <trkpt lat="46.13215" lon="3.72584">
        <ele>567</ele>
        <time>2008-08-01T17:25:19Z</time>
      </trkpt>
      <trkpt lat="46.13182" lon="3.72641">
        <ele>566</ele>
        <time>2008-08-01T17:25:19Z</time>
      </trkpt>
      <trkpt lat="46.13141" lon="3.72673">
        <ele>563</ele>
        <time>2008-08-01T17:25:19Z</time>
      </trkpt>
      <trkpt lat="46.1309" lon="3.72748">
        <ele>564</ele>
        <time>2008-08-01T17:25:19Z</time>
      </trkpt>
      <trkpt lat="46.1299" lon="3.72805">
        <ele>565</ele>
        <time>2008-08-01T17:25:19Z</time>
      </trkpt>
      <trkpt lat="46.12988" lon="3.72844">
        <ele>565</ele>
        <time>2008-08-01T17:25:19Z</time>
      </trkpt>
      <trkpt lat="46.12998" lon="3.72913">
        <ele>571</ele>
        <time>2008-08-01T17:25:19Z</time>
      </trkpt>
      <trkpt lat="46.1299" lon="3.72934">
        <ele>572</ele>
        <time>2008-08-01T17:25:19Z</time>
      </trkpt>
      <trkpt lat="46.12975" lon="3.72942">
        <ele>574</ele>
        <time>2008-08-01T17:25:19Z</time>
      </trkpt>
      <trkpt lat="46.12931" lon="3.72938">
        <ele>578</ele>
        <time>2008-08-01T17:25:19Z</time>
      </trkpt>
      <trkpt lat="46.12857" lon="3.72906">
        <ele>593</ele>
        <time>2008-08-01T17:25:19Z</time>
      </trkpt>
      <trkpt lat="46.12849" lon="3.7297">
        <ele>586</ele>
        <time>2008-08-01T17:25:19Z</time>
      </trkpt>
      <trkpt lat="46.12797" lon="3.73054">
        <ele>577</ele>
        <time>2008-08-01T17:25:19Z</time>
      </trkpt>
      <trkpt lat="46.12744" lon="3.7318">
        <ele>569</ele>
        <time>2008-08-01T17:25:19Z</time>
      </trkpt>
      <trkpt lat="46.12685" lon="3.733">
        <ele>566</ele>
        <time>2008-08-01T17:25:19Z</time>
      </trkpt>
      <trkpt lat="46.12666" lon="3.73321">
        <ele>565</ele>
        <time>2008-08-01T17:25:19Z</time>
      </trkpt>
      <trkpt lat="46.12646" lon="3.73329">
        <ele>566</ele>
        <time>2008-08-01T17:25:19Z</time>
      </trkpt>
      <trkpt lat="46.12598" lon="3.73322">
        <ele>562</ele>
        <time>2008-08-01T17:25:19Z</time>
      </trkpt>
      <trkpt lat="46.12577" lon="3.73343">
        <ele>565</ele>
        <time>2008-08-01T17:25:19Z</time>
      </trkpt>
      <trkpt lat="46.12547" lon="3.73383">
        <ele>558</ele>
        <time>2008-08-01T17:25:19Z</time>
      </trkpt>
      <trkpt lat="46.12493" lon="3.73426">
        <ele>559</ele>
        <time>2008-08-01T17:25:19Z</time>
      </trkpt>
      <trkpt lat="46.12489" lon="3.73498">
        <ele>557</ele>
        <time>2008-08-01T17:25:19Z</time>
      </trkpt>
      <trkpt lat="46.12511" lon="3.73626">
        <ele>556</ele>
        <time>2008-08-01T17:25:19Z</time>
      </trkpt>
      <trkpt lat="46.12502" lon="3.73655">
        <ele>553</ele>
        <time>2008-08-01T17:25:19Z</time>
      </trkpt>
      <trkpt lat="46.12442" lon="3.73743">
        <ele>542</ele>
        <time>2008-08-01T17:25:19Z</time>
      </trkpt>
      <trkpt lat="46.12408" lon="3.73931">
        <ele>533</ele>
        <time>2008-08-01T17:25:19Z</time>
      </trkpt>
      <trkpt lat="46.12383" lon="3.73964">
        <ele>532</ele>
        <time>2008-08-01T17:25:19Z</time>
      </trkpt>
      <trkpt lat="46.12389" lon="3.7403">
        <ele>534</ele>
        <time>2008-08-01T17:25:19Z</time>
      </trkpt>
      <trkpt lat="46.12383" lon="3.74123">
        <ele>538</ele>
        <time>2008-08-01T17:25:19Z</time>
      </trkpt>
      <trkpt lat="46.12356" lon="3.74184">
        <ele>540</ele>
        <time>2008-08-01T17:25:19Z</time>
      </trkpt>
      <trkpt lat="46.12323" lon="3.74228">
        <ele>531</ele>
        <time>2008-08-01T17:25:19Z</time>
      </trkpt>
      <trkpt lat="46.12316" lon="3.74253">
        <ele>531</ele>
        <time>2008-08-01T17:25:19Z</time>
      </trkpt>
      <trkpt lat="46.12351" lon="3.7428">
        <ele>526</ele>
        <time>2008-08-01T17:25:19Z</time>
      </trkpt>
      <trkpt lat="46.1237" lon="3.74299">
        <ele>523</ele>
        <time>2008-08-01T17:25:19Z</time>
      </trkpt>
      <trkpt lat="46.12381" lon="3.74318">
        <ele>526</ele>
        <time>2008-08-01T17:25:19Z</time>
      </trkpt>
      <trkpt lat="46.12397" lon="3.74432">
        <ele>522</ele>
        <time>2008-08-01T17:25:19Z</time>
      </trkpt>
      <trkpt lat="46.124" lon="3.74534">
        <ele>528</ele>
        <time>2008-08-01T17:25:19Z</time>
      </trkpt>
      <trkpt lat="46.12406" lon="3.74577">
        <ele>535</ele>
        <time>2008-08-01T17:25:19Z</time>
      </trkpt>
      <trkpt lat="46.12451" lon="3.74687">
        <ele>546</ele>
        <time>2008-08-01T17:25:19Z</time>
      </trkpt>
      <trkpt lat="46.12436" lon="3.74714">
        <ele>550</ele>
        <time>2008-08-01T17:25:19Z</time>
      </trkpt>
      <trkpt lat="46.1242" lon="3.74779">
        <ele>556</ele>
        <time>2008-08-01T17:25:19Z</time>
      </trkpt>
      <trkpt lat="46.12425" lon="3.74772">
        <ele>556</ele>
        <time>2008-08-01T17:25:19Z</time>
      </trkpt>
      <trkpt lat="46.12448" lon="3.74814">
        <ele>561</ele>
        <time>2008-08-01T17:25:19Z</time>
      </trkpt>
      <trkpt lat="46.12516" lon="3.74882">
        <ele>568</ele>
        <time>2008-08-01T17:25:19Z</time>
      </trkpt>
      <trkpt lat="46.12645" lon="3.74959">
        <ele>583</ele>
        <time>2008-08-01T17:25:19Z</time>
      </trkpt>
      <trkpt lat="46.12689" lon="3.74972">
        <ele>587</ele>
        <time>2008-08-01T17:25:19Z</time>
      </trkpt>
      <trkpt lat="46.12722" lon="3.74991">
        <ele>591</ele>
        <time>2008-08-01T17:25:19Z</time>
      </trkpt>
      <trkpt lat="46.12795" lon="3.75074">
        <ele>601</ele>
        <time>2008-08-01T17:25:19Z</time>
      </trkpt>
      <trkpt lat="46.12822" lon="3.75124">
        <ele>599</ele>
        <time>2008-08-01T17:25:19Z</time>
      </trkpt>
      <trkpt lat="46.12858" lon="3.75163">
        <ele>612</ele>
        <time>2008-08-01T17:25:19Z</time>
      </trkpt>
      <trkpt lat="46.12859" lon="3.75222">
        <ele>624</ele>
        <time>2008-08-01T17:25:19Z</time>
      </trkpt>
      <trkpt lat="46.12842" lon="3.75258">
        <ele>631</ele>
        <time>2008-08-01T17:25:19Z</time>
      </trkpt>
      <trkpt lat="46.12817" lon="3.75282">
        <ele>638</ele>
        <time>2008-08-01T17:25:19Z</time>
      </trkpt>
      <trkpt lat="46.12788" lon="3.75297">
        <ele>643</ele>
        <time>2008-08-01T17:25:19Z</time>
      </trkpt>
      <trkpt lat="46.12768" lon="3.75287">
        <ele>643</ele>
        <time>2008-08-01T17:25:19Z</time>
      </trkpt>
      <trkpt lat="46.12758" lon="3.75291">
        <ele>646</ele>
        <time>2008-08-01T17:25:19Z</time>
      </trkpt>
      <trkpt lat="46.12713" lon="3.75341">
        <ele>660</ele>
        <time>2008-08-01T17:25:19Z</time>
      </trkpt>
      <trkpt lat="46.12642" lon="3.75402">
        <ele>669</ele>
        <time>2008-08-01T17:25:19Z</time>
      </trkpt>
      <trkpt lat="46.12586" lon="3.7542">
        <ele>669</ele>
        <time>2008-08-01T17:25:19Z</time>
      </trkpt>
      <trkpt lat="46.12576" lon="3.75438">
        <ele>669</ele>
        <time>2008-08-01T17:25:19Z</time>
      </trkpt>
      <trkpt lat="46.12504" lon="3.75511">
        <ele>663</ele>
        <time>2008-08-01T17:25:19Z</time>
      </trkpt>
      <trkpt lat="46.12463" lon="3.75529">
        <ele>661</ele>
        <time>2008-08-01T17:25:19Z</time>
      </trkpt>
      <trkpt lat="46.12452" lon="3.75571">
        <ele>659</ele>
        <time>2008-08-01T17:25:19Z</time>
      </trkpt>
      <trkpt lat="46.12433" lon="3.75576">
        <ele>660</ele>
        <time>2008-08-01T17:25:19Z</time>
      </trkpt>
      <trkpt lat="46.12347" lon="3.75661">
        <ele>662</ele>
        <time>2008-08-01T17:25:19Z</time>
      </trkpt>
      <trkpt lat="46.12218" lon="3.75775">
        <ele>674</ele>
        <time>2008-08-01T17:25:19Z</time>
      </trkpt>
      <trkpt lat="46.12152" lon="3.75785">
        <ele>675</ele>
        <time>2008-08-01T17:25:19Z</time>
      </trkpt>
      <trkpt lat="46.12097" lon="3.75775">
        <ele>672</ele>
        <time>2008-08-01T17:25:19Z</time>
      </trkpt>
      <trkpt lat="46.12027" lon="3.75841">
        <ele>672</ele>
        <time>2008-08-01T17:25:19Z</time>
      </trkpt>
      <trkpt lat="46.11991" lon="3.75884">
        <ele>670</ele>
        <time>2008-08-01T17:25:19Z</time>
      </trkpt>
      <trkpt lat="46.11928" lon="3.75991">
        <ele>667</ele>
        <time>2008-08-01T17:25:19Z</time>
      </trkpt>
      <trkpt lat="46.11894" lon="3.76061">
        <ele>671</ele>
        <time>2008-08-01T17:25:19Z</time>
      </trkpt>
      <trkpt lat="46.1187" lon="3.76098">
        <ele>672</ele>
        <time>2008-08-01T17:25:19Z</time>
      </trkpt>
      <trkpt lat="46.11857" lon="3.76104">
        <ele>673</ele>
        <time>2008-08-01T17:25:19Z</time>
      </trkpt>
      <trkpt lat="46.1183" lon="3.76153">
        <ele>676</ele>
        <time>2008-08-01T17:25:19Z</time>
      </trkpt>
      <trkpt lat="46.11822" lon="3.76177">
        <ele>677</ele>
        <time>2008-08-01T17:25:19Z</time>
      </trkpt>
      <trkpt lat="46.11817" lon="3.76302">
        <ele>681</ele>
        <time>2008-08-01T17:25:19Z</time>
      </trkpt>
      <trkpt lat="46.11809" lon="3.76329">
        <ele>681</ele>
        <time>2008-08-01T17:25:19Z</time>
      </trkpt>
      <trkpt lat="46.11776" lon="3.76387">
        <ele>684</ele>
        <time>2008-08-01T17:25:19Z</time>
      </trkpt>
      <trkpt lat="46.1174" lon="3.76398">
        <ele>685</ele>
        <time>2008-08-01T17:25:19Z</time>
      </trkpt>
      <trkpt lat="46.11711" lon="3.76486">
        <ele>686</ele>
        <time>2008-08-01T17:25:19Z</time>
      </trkpt>
      <trkpt lat="46.11692" lon="3.76708">
        <ele>690</ele>
        <time>2008-08-01T17:25:19Z</time>
      </trkpt>
      <trkpt lat="46.11704" lon="3.76884">
        <ele>703</ele>
        <time>2008-08-01T17:25:19Z</time>
      </trkpt>
      <trkpt lat="46.11686" lon="3.76973">
        <ele>695</ele>
        <time>2008-08-01T17:25:19Z</time>
      </trkpt>
      <trkpt lat="46.11698" lon="3.77006">
        <ele>687</ele>
        <time>2008-08-01T17:25:19Z</time>
      </trkpt>
      <trkpt lat="46.11711" lon="3.77008">
        <ele>684</ele>
        <time>2008-08-01T17:25:19Z</time>
      </trkpt>
      <trkpt lat="46.11771" lon="3.7698">
        <ele>671</ele>
        <time>2008-08-01T17:25:19Z</time>
      </trkpt>
      <trkpt lat="46.11793" lon="3.76984">
        <ele>668</ele>
        <time>2008-08-01T17:25:19Z</time>
      </trkpt>
      <trkpt lat="46.11837" lon="3.76968">
        <ele>662</ele>
        <time>2008-08-01T17:25:19Z</time>
      </trkpt>
      <trkpt lat="46.11878" lon="3.76978">
        <ele>655</ele>
        <time>2008-08-01T17:25:19Z</time>
      </trkpt>
      <trkpt lat="46.11925" lon="3.76945">
        <ele>652</ele>
        <time>2008-08-01T17:25:19Z</time>
      </trkpt>
      <trkpt lat="46.11975" lon="3.76947">
        <ele>651</ele>
        <time>2008-08-01T17:25:19Z</time>
      </trkpt>
      <trkpt lat="46.12035" lon="3.76997">
        <ele>651</ele>
        <time>2008-08-01T17:25:19Z</time>
      </trkpt>
      <trkpt lat="46.12085" lon="3.76996">
        <ele>650</ele>
        <time>2008-08-01T17:25:19Z</time>
      </trkpt>
      <trkpt lat="46.12114" lon="3.7699">
        <ele>644</ele>
        <time>2008-08-01T17:25:19Z</time>
      </trkpt>
      <trkpt lat="46.12115" lon="3.76963">
        <ele>638</ele>
        <time>2008-08-01T17:25:19Z</time>
      </trkpt>
      <trkpt lat="46.12139" lon="3.76894">
        <ele>621</ele>
        <time>2008-08-01T17:25:19Z</time>
      </trkpt>
      <trkpt lat="46.12146" lon="3.76859">
        <ele>620</ele>
        <time>2008-08-01T17:25:19Z</time>
      </trkpt>
      <trkpt lat="46.12165" lon="3.76814">
        <ele>616</ele>
        <time>2008-08-01T17:25:19Z</time>
      </trkpt>
      <trkpt lat="46.12155" lon="3.76751">
        <ele>621</ele>
        <time>2008-08-01T17:25:19Z</time>
      </trkpt>
      <trkpt lat="46.12159" lon="3.76727">
        <ele>614</ele>
        <time>2008-08-01T17:25:19Z</time>
      </trkpt>
      <trkpt lat="46.12195" lon="3.76709">
        <ele>615</ele>
        <time>2008-08-01T17:25:19Z</time>
      </trkpt>
      <trkpt lat="46.12221" lon="3.76575">
        <ele>612</ele>
        <time>2008-08-01T17:25:19Z</time>
      </trkpt>
      <trkpt lat="46.12284" lon="3.76474">
        <ele>614</ele>
        <time>2008-08-01T17:25:19Z</time>
      </trkpt>
      <trkpt lat="46.12304" lon="3.76422">
        <ele>613</ele>
        <time>2008-08-01T17:25:19Z</time>
      </trkpt>
      <trkpt lat="46.12367" lon="3.76339">
        <ele>616</ele>
        <time>2008-08-01T17:25:19Z</time>
      </trkpt>
      <trkpt lat="46.12389" lon="3.7632">
        <ele>618</ele>
        <time>2008-08-01T17:25:19Z</time>
      </trkpt>
      <trkpt lat="46.12412" lon="3.76313">
        <ele>622</ele>
        <time>2008-08-01T17:25:19Z</time>
      </trkpt>
      <trkpt lat="46.12439" lon="3.76314">
        <ele>628</ele>
        <time>2008-08-01T17:25:19Z</time>
      </trkpt>
      <trkpt lat="46.12575" lon="3.76279">
        <ele>638</ele>
        <time>2008-08-01T17:25:19Z</time>
      </trkpt>
      <trkpt lat="46.12612" lon="3.76297">
        <ele>645</ele>
        <time>2008-08-01T17:25:19Z</time>
      </trkpt>
      <trkpt lat="46.1264" lon="3.76297">
        <ele>648</ele>
        <time>2008-08-01T17:25:19Z</time>
      </trkpt>
      <trkpt lat="46.12726" lon="3.76256">
        <ele>653</ele>
        <time>2008-08-01T17:25:19Z</time>
      </trkpt>
      <trkpt lat="46.12803" lon="3.76277">
        <ele>653</ele>
        <time>2008-08-01T17:25:19Z</time>
      </trkpt>
      <trkpt lat="46.12865" lon="3.76252">
        <ele>651</ele>
        <time>2008-08-01T17:25:19Z</time>
      </trkpt>
      <trkpt lat="46.12878" lon="3.76276">
        <ele>648</ele>
        <time>2008-08-01T17:25:19Z</time>
      </trkpt>
      <trkpt lat="46.12904" lon="3.76294">
        <ele>647</ele>
        <time>2008-08-01T17:25:19Z</time>
      </trkpt>
      <trkpt lat="46.1298" lon="3.76382">
        <ele>644</ele>
        <time>2008-08-01T17:25:19Z</time>
      </trkpt>
      <trkpt lat="46.13041" lon="3.76465">
        <ele>645</ele>
        <time>2008-08-01T17:25:19Z</time>
      </trkpt>
      <trkpt lat="46.13093" lon="3.76522">
        <ele>636</ele>
        <time>2008-08-01T17:25:19Z</time>
      </trkpt>
      <trkpt lat="46.13137" lon="3.76596">
        <ele>633</ele>
        <time>2008-08-01T17:25:19Z</time>
      </trkpt>
      <trkpt lat="46.13204" lon="3.76539">
        <ele>637</ele>
        <time>2008-08-01T17:25:19Z</time>
      </trkpt>
      <trkpt lat="46.13215" lon="3.76518">
        <ele>641</ele>
        <time>2008-08-01T17:25:19Z</time>
      </trkpt>
      <trkpt lat="46.13213" lon="3.76412">
        <ele>649</ele>
        <time>2008-08-01T17:25:19Z</time>
      </trkpt>
      <trkpt lat="46.13192" lon="3.7638">
        <ele>650</ele>
        <time>2008-08-01T17:25:19Z</time>
      </trkpt>
      <trkpt lat="46.13194" lon="3.76333">
        <ele>651</ele>
        <time>2008-08-01T17:25:19Z</time>
      </trkpt>
      <trkpt lat="46.13189" lon="3.76368">
        <ele>650</ele>
        <time>2008-08-01T17:25:19Z</time>
      </trkpt>
      <trkpt lat="46.13193" lon="3.76337">
        <ele>652</ele>
        <time>2008-08-01T17:25:19Z</time>
      </trkpt>
      <trkpt lat="46.13201" lon="3.76326">
        <ele>651</ele>
        <time>2008-08-01T17:25:19Z</time>
      </trkpt>
      <trkpt lat="46.13225" lon="3.76316">
        <ele>650</ele>
        <time>2008-08-01T17:25:19Z</time>
      </trkpt>
      <trkpt lat="46.1335" lon="3.76335">
        <ele>647</ele>
        <time>2008-08-01T17:25:19Z</time>
      </trkpt>
      <trkpt lat="46.13491" lon="3.76308">
        <ele>652</ele>
        <time>2008-08-01T17:25:19Z</time>
      </trkpt>
      <trkpt lat="46.13528" lon="3.76289">
        <ele>652</ele>
        <time>2008-08-01T17:25:19Z</time>
      </trkpt>
      <trkpt lat="46.1373" lon="3.76129">
        <ele>655</ele>
        <time>2008-08-01T17:25:19Z</time>
      </trkpt>
      <trkpt lat="46.13801" lon="3.7608">
        <ele>658</ele>
        <time>2008-08-01T17:25:19Z</time>
      </trkpt>
      <trkpt lat="46.1388" lon="3.75994">
        <ele>661</ele>
        <time>2008-08-01T17:25:19Z</time>
      </trkpt>
      <trkpt lat="46.13918" lon="3.75968">
        <ele>663</ele>
        <time>2008-08-01T17:25:19Z</time>
      </trkpt>
      <trkpt lat="46.13912" lon="3.75761">
        <ele>668</ele>
        <time>2008-08-01T17:25:19Z</time>
      </trkpt>
      <trkpt lat="46.13938" lon="3.75602">
        <ele>670</ele>
        <time>2008-08-01T17:25:19Z</time>
      </trkpt>
      <trkpt lat="46.13949" lon="3.75603">
        <ele>671</ele>
        <time>2008-08-01T17:25:19Z</time>
      </trkpt>
      <trkpt lat="46.13946" lon="3.75679">
        <ele>674</ele>
        <time>2008-08-01T17:25:19Z</time>
      </trkpt>
      <trkpt lat="46.13958" lon="3.75705">
        <ele>676</ele>
        <time>2008-08-01T17:25:19Z</time>
      </trkpt>
      <trkpt lat="46.13969" lon="3.75711">
        <ele>676</ele>
        <time>2008-08-01T17:25:19Z</time>
      </trkpt>
      <trkpt lat="46.13995" lon="3.75669">
        <ele>681</ele>
        <time>2008-08-01T17:25:19Z</time>
      </trkpt>
      <trkpt lat="46.14008" lon="3.75609">
        <ele>684</ele>
        <time>2008-08-01T17:25:19Z</time>
      </trkpt>
      <trkpt lat="46.14057" lon="3.75516">
        <ele>689</ele>
        <time>2008-08-01T17:25:19Z</time>
      </trkpt>
      <trkpt lat="46.14093" lon="3.75459">
        <ele>686</ele>
        <time>2008-08-01T17:25:19Z</time>
      </trkpt>
      <trkpt lat="46.14163" lon="3.75391">
        <ele>688</ele>
        <time>2008-08-01T17:25:19Z</time>
      </trkpt>
      <trkpt lat="46.14257" lon="3.75342">
        <ele>687</ele>
        <time>2008-08-01T17:25:19Z</time>
      </trkpt>
      <trkpt lat="46.14288" lon="3.75345">
        <ele>684</ele>
        <time>2008-08-01T17:25:19Z</time>
      </trkpt>
      <trkpt lat="46.1432" lon="3.75333">
        <ele>682</ele>
        <time>2008-08-01T17:25:19Z</time>
      </trkpt>
      <trkpt lat="46.14332" lon="3.75354">
        <ele>684</ele>
        <time>2008-08-01T17:25:19Z</time>
      </trkpt>
      <trkpt lat="46.14344" lon="3.75436">
        <ele>678</ele>
        <time>2008-08-01T17:25:19Z</time>
      </trkpt>
      <trkpt lat="46.14415" lon="3.75433">
        <ele>680</ele>
        <time>2008-08-01T17:25:19Z</time>
      </trkpt>
      <trkpt lat="46.1444" lon="3.75371">
        <ele>688</ele>
        <time>2008-08-01T17:25:19Z</time>
      </trkpt>
      <trkpt lat="46.14538" lon="3.75293">
        <ele>692</ele>
        <time>2008-08-01T17:25:19Z</time>
      </trkpt>
      <trkpt lat="46.1452" lon="3.75181">
        <ele>700</ele>
        <time>2008-08-01T17:25:19Z</time>
      </trkpt>
      <trkpt lat="46.14529" lon="3.75127">
        <ele>706</ele>
        <time>2008-08-01T17:25:19Z</time>
      </trkpt>
      <trkpt lat="46.14563" lon="3.75085">
        <ele>712</ele>
        <time>2008-08-01T17:25:19Z</time>
      </trkpt>
      <trkpt lat="46.14662" lon="3.75035">
        <ele>712</ele>
        <time>2008-08-01T17:25:19Z</time>
      </trkpt>
      <trkpt lat="46.14716" lon="3.74993">
        <ele>712</ele>
        <time>2008-08-01T17:25:19Z</time>
      </trkpt>
      <trkpt lat="46.14774" lon="3.74903">
        <ele>712</ele>
        <time>2008-08-01T17:25:19Z</time>
      </trkpt>
      <trkpt lat="46.14857" lon="3.74733">
        <ele>701</ele>
        <time>2008-08-01T17:25:19Z</time>
      </trkpt>
      <trkpt lat="46.1491" lon="3.74616">
        <ele>707</ele>
        <time>2008-08-01T17:25:19Z</time>
      </trkpt>
      <trkpt lat="46.14959" lon="3.74489">
        <ele>690</ele>
        <time>2008-08-01T17:25:19Z</time>
      </trkpt>
      <trkpt lat="46.15012" lon="3.74315">
        <ele>671</ele>
        <time>2008-08-01T17:25:19Z</time>
      </trkpt>
      <trkpt lat="46.15026" lon="3.74288">
        <ele>667</ele>
        <time>2008-08-01T17:25:19Z</time>
      </trkpt>
      <trkpt lat="46.15084" lon="3.74241">
        <ele>663</ele>
        <time>2008-08-01T17:25:19Z</time>
      </trkpt>
      <trkpt lat="46.15099" lon="3.74206">
        <ele>662</ele>
        <time>2008-08-01T17:25:19Z</time>
      </trkpt>
      <trkpt lat="46.15135" lon="3.74231">
        <ele>666</ele>
        <time>2008-08-01T17:25:19Z</time>
      </trkpt>
      <trkpt lat="46.152" lon="3.74252">
        <ele>663</ele>
        <time>2008-08-01T17:25:19Z</time>
      </trkpt>
      <trkpt lat="46.15215" lon="3.74329">
        <ele>662</ele>
        <time>2008-08-01T17:25:19Z</time>
      </trkpt>
      <trkpt lat="46.15237" lon="3.7438">
        <ele>662</ele>
        <time>2008-08-01T17:25:19Z</time>
      </trkpt>
      <trkpt lat="46.15263" lon="3.74418">
        <ele>661</ele>
        <time>2008-08-01T17:25:19Z</time>
      </trkpt>
      <trkpt lat="46.15317" lon="3.74465">
        <ele>655</ele>
        <time>2008-08-01T17:25:19Z</time>
      </trkpt>
      <trkpt lat="46.15362" lon="3.74565">
        <ele>650</ele>
        <time>2008-08-01T17:25:19Z</time>
      </trkpt>
      <trkpt lat="46.15369" lon="3.74627">
        <ele>647</ele>
        <time>2008-08-01T17:25:19Z</time>
      </trkpt>
      <trkpt lat="46.15363" lon="3.74751">
        <ele>632</ele>
        <time>2008-08-01T17:25:19Z</time>
      </trkpt>
      <trkpt lat="46.15382" lon="3.74874">
        <ele>625</ele>
        <time>2008-08-01T17:25:19Z</time>
      </trkpt>
      <trkpt lat="46.15379" lon="3.75028">
        <ele>623</ele>
        <time>2008-08-01T17:25:19Z</time>
      </trkpt>
      <trkpt lat="46.15399" lon="3.75">
        <ele>620</ele>
        <time>2008-08-01T17:25:19Z</time>
      </trkpt>
      <trkpt lat="46.1543" lon="3.74916">
        <ele>613</ele>
        <time>2008-08-01T17:25:19Z</time>
      </trkpt>
      <trkpt lat="46.15486" lon="3.74837">
        <ele>611</ele>
        <time>2008-08-01T17:25:19Z</time>
      </trkpt>
      <trkpt lat="46.15515" lon="3.74809">
        <ele>610</ele>
        <time>2008-08-01T17:25:19Z</time>
      </trkpt>
      <trkpt lat="46.15538" lon="3.74791">
        <ele>607</ele>
        <time>2008-08-01T17:25:19Z</time>
      </trkpt>
      <trkpt lat="46.15615" lon="3.74766">
        <ele>612</ele>
        <time>2008-08-01T17:25:19Z</time>
      </trkpt>
      <trkpt lat="46.15709" lon="3.74723">
        <ele>615</ele>
        <time>2008-08-01T17:25:19Z</time>
      </trkpt>
      <trkpt lat="46.15802" lon="3.74698">
        <ele>617</ele>
        <time>2008-08-01T17:25:19Z</time>
      </trkpt>
      <trkpt lat="46.15897" lon="3.74684">
        <ele>616</ele>
        <time>2008-08-01T17:25:19Z</time>
      </trkpt>
      <trkpt lat="46.15959" lon="3.74656">
        <ele>618</ele>
        <time>2008-08-01T17:25:19Z</time>
      </trkpt>
      <trkpt lat="46.15995" lon="3.7466">
        <ele>617</ele>
        <time>2008-08-01T17:25:19Z</time>
      </trkpt>
      <trkpt lat="46.1602" lon="3.74673">
        <ele>618</ele>
        <time>2008-08-01T17:25:19Z</time>
      </trkpt>
      <trkpt lat="46.16068" lon="3.74652">
        <ele>614</ele>
        <time>2008-08-01T17:25:19Z</time>
      </trkpt>
      <trkpt lat="46.16117" lon="3.74729">
        <ele>602</ele>
        <time>2008-08-01T17:25:19Z</time>
      </trkpt>
      <trkpt lat="46.16133" lon="3.74743">
        <ele>601</ele>
        <time>2008-08-01T17:25:19Z</time>
      </trkpt>
      <trkpt lat="46.16064" lon="3.74826">
        <ele>584</ele>
        <time>2008-08-01T17:25:19Z</time>
      </trkpt>
      <trkpt lat="46.16052" lon="3.74878">
        <ele>581</ele>
        <time>2008-08-01T17:25:19Z</time>
      </trkpt>
      <trkpt lat="46.16056" lon="3.74941">
        <ele>575</ele>
        <time>2008-08-01T17:25:19Z</time>
      </trkpt>
      <trkpt lat="46.16042" lon="3.74985">
        <ele>569</ele>
        <time>2008-08-01T17:25:19Z</time>
      </trkpt>
      <trkpt lat="46.16043" lon="3.75039">
        <ele>569</ele>
        <time>2008-08-01T17:25:19Z</time>
      </trkpt>
      <trkpt lat="46.1603" lon="3.75081">
        <ele>571</ele>
        <time>2008-08-01T17:25:19Z</time>
      </trkpt>
      <trkpt lat="46.15997" lon="3.75111">
        <ele>570</ele>
        <time>2008-08-01T17:25:19Z</time>
      </trkpt>
      <trkpt lat="46.1593" lon="3.7514">
        <ele>569</ele>
        <time>2008-08-01T17:25:19Z</time>
      </trkpt>
      <trkpt lat="46.15871" lon="3.75198">
        <ele>564</ele>
        <time>2008-08-01T17:25:19Z</time>
      </trkpt>
      <trkpt lat="46.15828" lon="3.75266">
        <ele>559</ele>
        <time>2008-08-01T17:25:19Z</time>
      </trkpt>
      <trkpt lat="46.15769" lon="3.75331">
        <ele>550</ele>
        <time>2008-08-01T17:25:19Z</time>
      </trkpt>
      <trkpt lat="46.15735" lon="3.75322">
        <ele>549</ele>
        <time>2008-08-01T17:25:19Z</time>
      </trkpt>
      <trkpt lat="46.15674" lon="3.75257">
        <ele>544</ele>
        <time>2008-08-01T17:25:19Z</time>
      </trkpt>
      <trkpt lat="46.1563" lon="3.75241">
        <ele>543</ele>
        <time>2008-08-01T17:25:19Z</time>
      </trkpt>
      <trkpt lat="46.15618" lon="3.75253">
        <ele>543</ele>
        <time>2008-08-01T17:25:19Z</time>
      </trkpt>
      <trkpt lat="46.15625" lon="3.75338">
        <ele>534</ele>
        <time>2008-08-01T17:25:19Z</time>
      </trkpt>
      <trkpt lat="46.15619" lon="3.75398">
        <ele>534</ele>
        <time>2008-08-01T17:25:19Z</time>
      </trkpt>
      <trkpt lat="46.15552" lon="3.75465">
        <ele>540</ele>
        <time>2008-08-01T17:25:19Z</time>
      </trkpt>
      <trkpt lat="46.15518" lon="3.75506">
        <ele>543</ele>
        <time>2008-08-01T17:25:19Z</time>
      </trkpt>
      <trkpt lat="46.15496" lon="3.75577">
        <ele>543</ele>
        <time>2008-08-01T17:25:19Z</time>
      </trkpt>
      <trkpt lat="46.15487" lon="3.7567">
        <ele>538</ele>
        <time>2008-08-01T17:25:19Z</time>
      </trkpt>
      <trkpt lat="46.15468" lon="3.75759">
        <ele>530</ele>
        <time>2008-08-01T17:25:19Z</time>
      </trkpt>
      <trkpt lat="46.15431" lon="3.75802">
        <ele>523</ele>
        <time>2008-08-01T17:25:19Z</time>
      </trkpt>
      <trkpt lat="46.15445" lon="3.75894">
        <ele>504</ele>
        <time>2008-08-01T17:25:19Z</time>
      </trkpt>
      <trkpt lat="46.15462" lon="3.75959">
        <ele>499</ele>
        <time>2008-08-01T17:25:19Z</time>
      </trkpt>
      <trkpt lat="46.15469" lon="3.76021">
        <ele>490</ele>
        <time>2008-08-01T17:25:19Z</time>
      </trkpt>
      <trkpt lat="46.15481" lon="3.76117">
        <ele>480</ele>
        <time>2008-08-01T17:25:19Z</time>
      </trkpt>
      <trkpt lat="46.15498" lon="3.7619">
        <ele>473</ele>
        <time>2008-08-01T17:25:19Z</time>
      </trkpt>
      <trkpt lat="46.15517" lon="3.76238">
        <ele>471</ele>
        <time>2008-08-01T17:25:19Z</time>
      </trkpt>
      <trkpt lat="46.15541" lon="3.76314">
        <ele>462</ele>
        <time>2008-08-01T17:25:19Z</time>
      </trkpt>
      <trkpt lat="46.15554" lon="3.7641">
        <ele>458</ele>
        <time>2008-08-01T17:25:19Z</time>
      </trkpt>
      <trkpt lat="46.15558" lon="3.76493">
        <ele>453</ele>
        <time>2008-08-01T17:25:19Z</time>
      </trkpt>
      <trkpt lat="46.15526" lon="3.76545">
        <ele>455</ele>
        <time>2008-08-01T17:25:19Z</time>
      </trkpt>
      <trkpt lat="46.15487" lon="3.76578">
        <ele>457</ele>
        <time>2008-08-01T17:25:19Z</time>
      </trkpt>
      <trkpt lat="46.15436" lon="3.76614">
        <ele>461</ele>
        <time>2008-08-01T17:25:19Z</time>
      </trkpt>
      <trkpt lat="46.1541" lon="3.7663">
        <ele>461</ele>
        <time>2008-08-01T17:25:19Z</time>
      </trkpt>
      <trkpt lat="46.15374" lon="3.76698">
        <ele>452</ele>
        <time>2008-08-01T17:25:19Z</time>
      </trkpt>
      <trkpt lat="46.15379" lon="3.76716">
        <ele>450</ele>
        <time>2008-08-01T17:25:19Z</time>
      </trkpt>
      <trkpt lat="46.15391" lon="3.76728">
        <ele>450</ele>
        <time>2008-08-01T17:25:19Z</time>
      </trkpt>
      <trkpt lat="46.15407" lon="3.76731">
        <ele>460</ele>
        <time>2008-08-01T17:25:19Z</time>
      </trkpt>
      <trkpt lat="46.15473" lon="3.76736">
        <ele>464</ele>
        <time>2008-08-01T17:25:19Z</time>
      </trkpt>
      <trkpt lat="46.15543" lon="3.76695">
        <ele>474</ele>
        <time>2008-08-01T17:25:19Z</time>
      </trkpt>
      <trkpt lat="46.15608" lon="3.76683">
        <ele>478</ele>
        <time>2008-08-01T17:25:19Z</time>
      </trkpt>
      <trkpt lat="46.15754" lon="3.76759">
        <ele>498</ele>
        <time>2008-08-01T17:25:19Z</time>
      </trkpt>
      <trkpt lat="46.15786" lon="3.76766">
        <ele>501</ele>
        <time>2008-08-01T17:25:19Z</time>
      </trkpt>
      <trkpt lat="46.15855" lon="3.76763">
        <ele>505</ele>
        <time>2008-08-01T17:25:19Z</time>
      </trkpt>
      <trkpt lat="46.15925" lon="3.76798">
        <ele>504</ele>
        <time>2008-08-01T17:25:19Z</time>
      </trkpt>
      <trkpt lat="46.15962" lon="3.76809">
        <ele>506</ele>
        <time>2008-08-01T17:25:19Z</time>
      </trkpt>
      <trkpt lat="46.15977" lon="3.76788">
        <ele>506</ele>
        <time>2008-08-01T17:25:19Z</time>
      </trkpt>
      <trkpt lat="46.16012" lon="3.7676">
        <ele>506</ele>
        <time>2008-08-01T17:25:19Z</time>
      </trkpt>
      <trkpt lat="46.16017" lon="3.76743">
        <ele>504</ele>
        <time>2008-08-01T17:25:19Z</time>
      </trkpt>
      <trkpt lat="46.16081" lon="3.7669">
        <ele>497</ele>
        <time>2008-08-01T17:25:19Z</time>
      </trkpt>
      <trkpt lat="46.1614" lon="3.76691">
        <ele>491</ele>
        <time>2008-08-01T17:25:19Z</time>
      </trkpt>
      <trkpt lat="46.16185" lon="3.76668">
        <ele>489</ele>
        <time>2008-08-01T17:25:19Z</time>
      </trkpt>
      <trkpt lat="46.1632" lon="3.76639">
        <ele>482</ele>
        <time>2008-08-01T17:25:19Z</time>
      </trkpt>
      <trkpt lat="46.16381" lon="3.76672">
        <ele>476</ele>
        <time>2008-08-01T17:25:19Z</time>
      </trkpt>
      <trkpt lat="46.1642" lon="3.76702">
        <ele>473</ele>
        <time>2008-08-01T17:25:19Z</time>
      </trkpt>
      <trkpt lat="46.1644" lon="3.76682">
        <ele>474</ele>
        <time>2008-08-01T17:25:19Z</time>
      </trkpt>
      <trkpt lat="46.16498" lon="3.76575">
        <ele>481</ele>
        <time>2008-08-01T17:25:19Z</time>
      </trkpt>
      <trkpt lat="46.16529" lon="3.76538">
        <ele>483</ele>
        <time>2008-08-01T17:25:19Z</time>
      </trkpt>
      <trkpt lat="46.16601" lon="3.7651">
        <ele>483</ele>
        <time>2008-08-01T17:25:19Z</time>
      </trkpt>
      <trkpt lat="46.16714" lon="3.76462">
        <ele>501</ele>
        <time>2008-08-01T17:25:19Z</time>
      </trkpt>
      <trkpt lat="46.16793" lon="3.76401">
        <ele>512</ele>
        <time>2008-08-01T17:25:19Z</time>
      </trkpt>
      <trkpt lat="46.1683" lon="3.7638">
        <ele>518</ele>
        <time>2008-08-01T17:25:19Z</time>
      </trkpt>
      <trkpt lat="46.16893" lon="3.76378">
        <ele>525</ele>
        <time>2008-08-01T17:25:19Z</time>
      </trkpt>
      <trkpt lat="46.16961" lon="3.76404">
        <ele>533</ele>
        <time>2008-08-01T17:25:19Z</time>
      </trkpt>
      <trkpt lat="46.16994" lon="3.76409">
        <ele>532</ele>
        <time>2008-08-01T17:25:19Z</time>
      </trkpt>
      <trkpt lat="46.17055" lon="3.76472">
        <ele>524</ele>
        <time>2008-08-01T17:25:19Z</time>
      </trkpt>
      <trkpt lat="46.17081" lon="3.76482">
        <ele>524</ele>
        <time>2008-08-01T17:25:19Z</time>
      </trkpt>
      <trkpt lat="46.17115" lon="3.76476">
        <ele>524</ele>
        <time>2008-08-01T17:25:19Z</time>
      </trkpt>
      <trkpt lat="46.1715" lon="3.76423">
        <ele>518</ele>
        <time>2008-08-01T17:25:19Z</time>
      </trkpt>
      <trkpt lat="46.17205" lon="3.76246">
        <ele>501</ele>
        <time>2008-08-01T17:25:19Z</time>
      </trkpt>
      <trkpt lat="46.17262" lon="3.76151">
        <ele>503</ele>
        <time>2008-08-01T17:25:19Z</time>
      </trkpt>
      <trkpt lat="46.17268" lon="3.76073">
        <ele>493</ele>
        <time>2008-08-01T17:25:19Z</time>
      </trkpt>
      <trkpt lat="46.17289" lon="3.76023">
        <ele>496</ele>
        <time>2008-08-01T17:25:19Z</time>
      </trkpt>
      <trkpt lat="46.17282" lon="3.76007">
        <ele>493</ele>
        <time>2008-08-01T17:25:19Z</time>
      </trkpt>
      <trkpt lat="46.17275" lon="3.7599">
        <ele>489</ele>
        <time>2008-08-01T17:25:19Z</time>
      </trkpt>
      <trkpt lat="46.17275" lon="3.75962">
        <ele>497</ele>
        <time>2008-08-01T17:25:19Z</time>
      </trkpt>
      <trkpt lat="46.17271" lon="3.7594">
        <ele>483</ele>
        <time>2008-08-01T17:25:19Z</time>
      </trkpt>
      <trkpt lat="46.17269" lon="3.75903">
        <ele>480</ele>
        <time>2008-08-01T17:25:19Z</time>
      </trkpt>
      <trkpt lat="46.17246" lon="3.75867">
        <ele>488</ele>
        <time>2008-08-01T17:25:19Z</time>
      </trkpt>
      <trkpt lat="46.17262" lon="3.75752">
        <ele>480</ele>
        <time>2008-08-01T17:25:19Z</time>
      </trkpt>
      <trkpt lat="46.17247" lon="3.75671">
        <ele>475</ele>
        <time>2008-08-01T17:25:19Z</time>
      </trkpt>
      <trkpt lat="46.17253" lon="3.75566">
        <ele>466</ele>
        <time>2008-08-01T17:25:19Z</time>
      </trkpt>
      <trkpt lat="46.17275" lon="3.75426">
        <ele>445</ele>
        <time>2008-08-01T17:25:19Z</time>
      </trkpt>
      <trkpt lat="46.17292" lon="3.75343">
        <ele>439</ele>
        <time>2008-08-01T17:25:19Z</time>
      </trkpt>
      <trkpt lat="46.17312" lon="3.75289">
        <ele>432</ele>
        <time>2008-08-01T17:25:19Z</time>
      </trkpt>
      <trkpt lat="46.17354" lon="3.75227">
        <ele>430</ele>
        <time>2008-08-01T17:25:19Z</time>
      </trkpt>
      <trkpt lat="46.17396" lon="3.75094">
        <ele>425</ele>
        <time>2008-08-01T17:25:19Z</time>
      </trkpt>
      <trkpt lat="46.17441" lon="3.75049">
        <ele>417</ele>
        <time>2008-08-01T17:25:19Z</time>
      </trkpt>
      <trkpt lat="46.17481" lon="3.74974">
        <ele>417</ele>
        <time>2008-08-01T17:25:19Z</time>
      </trkpt>
      <trkpt lat="46.17525" lon="3.74914">
        <ele>412</ele>
        <time>2008-08-01T17:25:19Z</time>
      </trkpt>
      <trkpt lat="46.17576" lon="3.74869">
        <ele>406</ele>
        <time>2008-08-01T17:25:19Z</time>
      </trkpt>
      <trkpt lat="46.17597" lon="3.748">
        <ele>401</ele>
        <time>2008-08-01T17:25:19Z</time>
      </trkpt>
      <trkpt lat="46.17645" lon="3.74719">
        <ele>386</ele>
        <time>2008-08-01T17:25:19Z</time>
      </trkpt>
      <trkpt lat="46.17639" lon="3.74708">
        <ele>384</ele>
        <time>2008-08-01T17:25:19Z</time>
      </trkpt>
      <trkpt lat="46.17628" lon="3.74688">
        <ele>382</ele>
        <time>2008-08-01T17:25:19Z</time>
      </trkpt>
      <trkpt lat="46.17614" lon="3.74648">
        <ele>393</ele>
        <time>2008-08-01T17:25:19Z</time>
      </trkpt>
      <trkpt lat="46.17611" lon="3.7459">
        <ele>392</ele>
        <time>2008-08-01T17:25:19Z</time>
      </trkpt>
      <trkpt lat="46.17617" lon="3.74575">
        <ele>392</ele>
        <time>2008-08-01T17:25:19Z</time>
      </trkpt>
      <trkpt lat="46.17639" lon="3.74559">
        <ele>394</ele>
        <time>2008-08-01T17:25:19Z</time>
      </trkpt>
      <trkpt lat="46.17698" lon="3.74452">
        <ele>403</ele>
        <time>2008-08-01T17:25:19Z</time>
      </trkpt>
      <trkpt lat="46.17765" lon="3.74374">
        <ele>407</ele>
        <time>2008-08-01T17:25:19Z</time>
      </trkpt>
      <trkpt lat="46.17783" lon="3.74303">
        <ele>403</ele>
        <time>2008-08-01T17:25:19Z</time>
      </trkpt>
      <trkpt lat="46.17756" lon="3.74262">
        <ele>408</ele>
        <time>2008-08-01T17:25:19Z</time>
      </trkpt>
      <trkpt lat="46.17737" lon="3.74251">
        <ele>409</ele>
        <time>2008-08-01T17:25:19Z</time>
      </trkpt>
      <trkpt lat="46.17663" lon="3.74326">
        <ele>422</ele>
        <time>2008-08-01T17:25:19Z</time>
      </trkpt>
      <trkpt lat="46.17552" lon="3.74399">
        <ele>429</ele>
        <time>2008-08-01T17:25:19Z</time>
      </trkpt>
      <trkpt lat="46.17512" lon="3.74458">
        <ele>437</ele>
        <time>2008-08-01T17:25:19Z</time>
      </trkpt>
      <trkpt lat="46.17405" lon="3.74484">
        <ele>454</ele>
        <time>2008-08-01T17:25:19Z</time>
      </trkpt>
      <trkpt lat="46.17347" lon="3.74545">
        <ele>469</ele>
        <time>2008-08-01T17:25:19Z</time>
      </trkpt>
      <trkpt lat="46.17263" lon="3.74605">
        <ele>480</ele>
        <time>2008-08-01T17:25:19Z</time>
      </trkpt>
      <trkpt lat="46.17231" lon="3.74641">
        <ele>487</ele>
        <time>2008-08-01T17:25:19Z</time>
      </trkpt>
      <trkpt lat="46.17226" lon="3.74636">
        <ele>488</ele>
        <time>2008-08-01T17:25:19Z</time>
      </trkpt>
      <trkpt lat="46.17187" lon="3.74658">
        <ele>494</ele>
        <time>2008-08-01T17:25:19Z</time>
      </trkpt>
      <trkpt lat="46.17134" lon="3.74645">
        <ele>500</ele>
        <time>2008-08-01T17:25:19Z</time>
      </trkpt>
      <trkpt lat="46.17102" lon="3.74653">
        <ele>505</ele>
        <time>2008-08-01T17:25:19Z</time>
      </trkpt>
      <trkpt lat="46.17026" lon="3.74721">
        <ele>508</ele>
        <time>2008-08-01T17:25:19Z</time>
      </trkpt>
      <trkpt lat="46.1695" lon="3.7486">
        <ele>512</ele>
        <time>2008-08-01T17:25:19Z</time>
      </trkpt>
      <trkpt lat="46.16909" lon="3.74905">
        <ele>515</ele>
        <time>2008-08-01T17:25:19Z</time>
      </trkpt>
      <trkpt lat="46.16858" lon="3.74921">
        <ele>516</ele>
        <time>2008-08-01T17:25:19Z</time>
      </trkpt>
      <trkpt lat="46.16778" lon="3.74889">
        <ele>512</ele>
        <time>2008-08-01T17:25:19Z</time>
      </trkpt>
      <trkpt lat="46.16755" lon="3.74897">
        <ele>512</ele>
        <time>2008-08-01T17:25:19Z</time>
      </trkpt>
      <trkpt lat="46.16745" lon="3.74922">
        <ele>513</ele>
        <time>2008-08-01T17:25:19Z</time>
      </trkpt>
      <trkpt lat="46.16749" lon="3.74992">
        <ele>519</ele>
        <time>2008-08-01T17:25:19Z</time>
      </trkpt>
      <trkpt lat="46.16756" lon="3.75009">
        <ele>521</ele>
        <time>2008-08-01T17:25:19Z</time>
      </trkpt>
      <trkpt lat="46.16753" lon="3.75072">
        <ele>526</ele>
        <time>2008-08-01T17:25:19Z</time>
      </trkpt>
      <trkpt lat="46.16734" lon="3.75114">
        <ele>528</ele>
        <time>2008-08-01T17:25:19Z</time>
      </trkpt>
      <trkpt lat="46.16725" lon="3.7504">
        <ele>535</ele>
        <time>2008-08-01T17:25:19Z</time>
      </trkpt>
      <trkpt lat="46.16634" lon="3.74913">
        <ele>553</ele>
        <time>2008-08-01T17:25:19Z</time>
      </trkpt>
      <trkpt lat="46.16642" lon="3.74961">
        <ele>556</ele>
        <time>2008-08-01T17:25:19Z</time>
      </trkpt>
      <trkpt lat="46.16638" lon="3.75009">
        <ele>560</ele>
        <time>2008-08-01T17:25:19Z</time>
      </trkpt>
      <trkpt lat="46.16633" lon="3.75023">
        <ele>561</ele>
        <time>2008-08-01T17:25:19Z</time>
      </trkpt>
      <trkpt lat="46.16617" lon="3.75029">
        <ele>565</ele>
        <time>2008-08-01T17:25:19Z</time>
      </trkpt>
      <trkpt lat="46.16572" lon="3.74951">
        <ele>575</ele>
        <time>2008-08-01T17:25:19Z</time>
      </trkpt>
      <trkpt lat="46.16489" lon="3.74879">
        <ele>580</ele>
        <time>2008-08-01T17:25:19Z</time>
      </trkpt>
      <trkpt lat="46.16435" lon="3.74697">
        <ele>586</ele>
        <time>2008-08-01T17:25:19Z</time>
      </trkpt>
      <trkpt lat="46.16429" lon="3.74661">
        <ele>587</ele>
        <time>2008-08-01T17:25:19Z</time>
      </trkpt>
      <trkpt lat="46.16432" lon="3.74577">
        <ele>588</ele>
        <time>2008-08-01T17:25:19Z</time>
      </trkpt>
      <trkpt lat="46.16402" lon="3.74548">
        <ele>589</ele>
        <time>2008-08-01T17:25:19Z</time>
      </trkpt>
      <trkpt lat="46.16399" lon="3.74522">
        <ele>588</ele>
        <time>2008-08-01T17:25:19Z</time>
      </trkpt>
      <trkpt lat="46.16372" lon="3.74446">
        <ele>571</ele>
        <time>2008-08-01T17:25:19Z</time>
      </trkpt>
      <trkpt lat="46.16358" lon="3.74383">
        <ele>564</ele>
        <time>2008-08-01T17:25:19Z</time>
      </trkpt>
      <trkpt lat="46.16236" lon="3.74181">
        <ele>527</ele>
        <time>2008-08-01T17:25:19Z</time>
      </trkpt>
      <trkpt lat="46.16164" lon="3.74071">
        <ele>516</ele>
        <time>2008-08-01T17:25:19Z</time>
      </trkpt>
      <trkpt lat="46.16167" lon="3.7406">
        <ele>513</ele>
        <time>2008-08-01T17:25:19Z</time>
      </trkpt>
      <trkpt lat="46.1614" lon="3.74081">
        <ele>500</ele>
        <time>2008-08-01T17:25:19Z</time>
      </trkpt>
      <trkpt lat="46.16105" lon="3.73979">
        <ele>497</ele>
        <time>2008-08-01T17:25:19Z</time>
      </trkpt>
      <trkpt lat="46.16073" lon="3.73938">
        <ele>489</ele>
        <time>2008-08-01T17:25:19Z</time>
      </trkpt>
      <trkpt lat="46.16071" lon="3.73875">
        <ele>476</ele>
        <time>2008-08-01T17:25:19Z</time>
      </trkpt>
      <trkpt lat="46.16038" lon="3.73771">
        <ele>461</ele>
        <time>2008-08-01T17:25:19Z</time>
      </trkpt>
      <trkpt lat="46.16016" lon="3.73748">
        <ele>456</ele>
        <time>2008-08-01T17:25:19Z</time>
      </trkpt>
      <trkpt lat="46.16002" lon="3.73517">
        <ele>439</ele>
        <time>2008-08-01T17:25:19Z</time>
      </trkpt>
      <trkpt lat="46.15978" lon="3.73362">
        <ele>429</ele>
        <time>2008-08-01T17:25:19Z</time>
      </trkpt>
      <trkpt lat="46.1598" lon="3.73308">
        <ele>429</ele>
        <time>2008-08-01T17:25:19Z</time>
      </trkpt>
      <trkpt lat="46.15987" lon="3.73282">
        <ele>428</ele>
        <time>2008-08-01T17:25:19Z</time>
      </trkpt>
      <trkpt lat="46.1592" lon="3.73191">
        <ele>425</ele>
        <time>2008-08-01T17:25:19Z</time>
      </trkpt>
      <trkpt lat="46.15843" lon="3.7313">
        <ele>427</ele>
        <time>2008-08-01T17:25:19Z</time>
      </trkpt>
    </trkseg>
  </trk>
</gpx>